EW6288 Weather Reports


Display with metric or nautical units.
time (UTC)temp
F
wind
direction
speed
MPH
gust
MPH
rain 1hr
in
rain 24hr
in
rain mn
in
humidity
%
barometer
mb
20260903233214 80 0 0.0 0.0 0.00 0.00 0.00 90 1012.0
20260903232713 80 0 0.0 0.0 0.00 0.00 0.00 90 1011.9
20260903232211 80 0 0.0 0.0 0.00 0.00 0.00 90 1011.9
20260903231943 80 0 0.0 0.0 0.00 0.00 0.00 90 1012.0
20260903231209 80 0 0.0 0.0 0.00 0.00 0.00 90 1012.0
20260903230707 80 0 0.0 0.0 0.00 0.00 0.00 90 1012.0
20260903230205 80 0 0.0 0.0 0.00 0.00 0.00 90 1012.0
20260903225702 80 0 0.0 1.0 0.00 0.00 0.00 90 1012.0
20260903225202 80 0 0.0 1.0 0.00 0.00 0.00 90 1012.0
20260903224658 80 0 0.0 1.0 0.00 0.00 0.00 90 1012.1
20260903224158 80 0 0.0 1.0 0.00 0.00 0.00 90 1012.1
20260903223657 80 0 0.0 1.0 0.00 0.00 0.00 90 1012.0
20260903223157 80 0 0.0 1.0 0.00 0.00 0.00 90 1012.0
20260903223152 80 0 0.0 1.0 0.00 0.00 0.00 90 1012.0
20260903222151 80 0 0.0 1.0 0.00 0.00 0.00 90 1012.1
20260903221648 80 0 0.0 2.0 0.00 0.00 0.00 90 1012.1
20260903221150 80 0 0.0 2.0 0.00 0.00 0.00 90 1012.2
20260903220644 80 0 0.0 0.0 0.00 0.00 0.00 90 1012.2
20260903220143 80 0 0.0 0.0 0.00 0.00 0.00 90 1012.2
20260903215646 80 0 0.0 0.0 0.00 0.00 0.00 90 1012.3
20260903215140 80 0 0.0 0.0 0.00 0.00 0.00 90 1012.4
20260903214641 80 0 0.0 0.0 0.00 0.00 0.00 90 1012.6
20260903214139 80 0 0.0 0.0 0.00 0.00 0.00 90 1012.8
20260903213639 80 0 0.0 0.0 0.00 0.00 0.00 89 1013.0
20260903213409 80 0 0.0 0.0 0.00 0.00 0.00 89 1013.1
20260903212640 80 0 0.0 2.0 0.00 0.00 0.00 90 1013.2
20260903212137 80 0 0.0 2.0 0.00 0.00 0.00 90 1013.3
20260903211635 80 0 0.0 3.0 0.00 0.00 0.00 89 1013.4
20260903211136 80 0 0.0 3.0 0.00 0.00 0.00 89 1013.4
20260903210635 80 0 1.0 3.0 0.00 0.00 0.00 89 1013.3
20260903210134 80 0 1.0 3.0 0.00 0.00 0.00 89 1013.2
20260903205635 80 0 1.0 2.0 0.00 0.00 0.00 90 1013.1
20260903205135 81 0 1.0 2.0 0.00 0.00 0.00 90 1013.2
20260903204634 80 0 1.0 2.0 0.00 0.00 0.00 90 1013.3
20260903204135 80 0 0.0 3.0 0.00 0.00 0.00 89 1013.3
20260903203905 80 0 0.0 3.0 0.00 0.00 0.00 89 1013.3
20260903203132 80 0 1.0 3.0 0.00 0.00 0.00 89 1013.0
20260903202634 80 0 1.0 3.0 0.00 0.00 0.00 89 1012.9
20260903202133 80 0 0.0 2.0 0.00 0.00 0.00 89 1013.0
20260903201633 80 0 1.0 3.0 0.00 0.00 0.00 89 1013.1
20260903201130 80 0 1.0 3.0 0.00 0.00 0.00 89 1013.2
20260903200628 80 0 0.0 3.0 0.00 0.00 0.00 89 1013.2
20260903200130 79 0 0.0 2.0 0.00 0.00 0.00 89 1013.0
20260903195859 79 0 0.0 2.0 0.00 0.00 0.00 89 1012.9
20260903195129 79 0 0.0 2.0 0.00 0.00 0.00 89 1013.0
20260903194859 79 0 0.0 2.0 0.00 0.00 0.00 89 1013.2
20260903194128 79 0 0.0 2.0 0.00 0.00 0.00 89 1013.2
20260903193629 78 0 0.0 2.0 0.00 0.00 0.00 89 1013.3
20260903193401 78 0 0.0 2.0 0.00 0.00 0.00 88 1013.3
20260903192625 78 0 0.0 2.0 0.00 0.00 0.00 88 1013.4
20260903192126 78 0 0.0 2.0 0.00 0.00 0.00 88 1013.5
20260903191624 78 0 1.0 2.0 0.00 0.00 0.00 88 1013.3
20260903191125 78 0 1.0 2.0 0.00 0.00 0.00 88 1013.3
20260903190855 78 0 0.0 4.0 0.00 0.00 0.00 88 1013.2
20260903190354 78 0 1.0 4.0 0.00 0.00 0.00 88 1013.2
20260903185626 78 0 1.0 4.0 0.00 0.00 0.00 88 1013.3
20260903185356 78 0 1.0 4.0 0.00 0.00 0.00 88 1013.4
20260903184625 78 0 0.0 2.0 0.00 0.00 0.00 88 1013.4
20260903184119 78 0 0.0 2.0 0.00 0.00 0.00 87 1013.4
20260903183621 78 0 0.0 2.0 0.00 0.00 0.00 87 1013.4
20260903183121 78 0 1.0 2.0 0.00 0.00 0.00 87 1013.7
20260903182851 78 0 1.0 2.0 0.00 0.00 0.00 87 1013.9
20260903182120 78 0 0.0 2.0 0.00 0.00 0.00 86 1013.8
20260903181621 78 0 0.0 3.0 0.00 0.00 0.00 86 1013.7
20260903181123 78 0 0.0 3.0 0.00 0.00 0.00 85 1014.0
20260903180622 78 0 1.0 5.0 0.00 0.00 0.00 85 1013.9
20260903180121 78 0 1.0 5.0 0.00 0.00 0.00 85 1013.8
20260903175622 79 0 2.0 5.0 0.00 0.00 0.00 85 1014.0
20260903175117 80 0 2.0 9.0 0.00 0.00 0.00 85 1014.0
20260903174619 80 0 2.0 9.0 0.00 0.00 0.00 85 1014.6
20260903174121 81 0 2.0 5.0 0.00 0.00 0.00 84 1014.9
20260903173618 81 0 2.0 4.0 0.00 0.00 0.00 84 1014.7
20260903173119 81 0 2.0 4.0 0.00 0.00 0.00 83 1014.5
20260903172619 82 0 2.0 4.0 0.00 0.00 0.00 83 1014.2
20260903172120 82 0 1.0 3.0 0.00 0.00 0.00 82 1013.9
20260903171618 83 0 1.0 10.0 0.00 0.00 0.00 81 1013.8
20260903171118 84 0 2.0 10.0 0.00 0.00 0.00 81 1013.9
20260903170618 85 0 3.0 10.0 0.00 0.00 0.00 82 1014.5
20260903170123 87 261 1.0 7.0 0.00 0.00 0.00 82 1014.2
20260903170119 86 0 3.0 10.0 0.00 0.00 0.00 83 1014.4
20260903165118 87 156 0.0 3.0 0.00 0.00 0.00 81 1013.9
20260903164618 87 156 1.0 5.0 0.00 0.00 0.00 81 1013.9
20260903164119 88 156 2.0 5.0 0.00 0.00 0.00 80 1014.0
20260903163621 88 157 2.0 5.0 0.00 0.00 0.00 79 1014.0
20260903163115 88 148 1.0 5.0 0.00 0.00 0.00 80 1013.9
20260903162615 88 165 1.0 4.0 0.00 0.00 0.00 81 1013.9
20260903162115 87 165 1.0 4.0 0.00 0.00 0.00 82 1013.9
20260903161617 87 176 1.0 2.0 0.00 0.00 0.00 83 1014.0
20260903161114 86 136 1.0 3.0 0.00 0.00 0.00 84 1014.0
20260903160614 85 135 1.0 5.0 0.00 0.00 0.00 86 1014.1
20260903160115 84 161 1.0 5.0 0.00 0.00 0.00 87 1014.1
20260903155845 83 140 1.0 4.0 0.00 0.00 0.00 88 1014.0
20260903155115 84 129 1.0 3.0 0.00 0.00 0.00 88 1013.9
20260903154611 83 150 1.0 3.0 0.00 0.00 0.00 88 1013.9
20260903154344 83 200 1.0 3.0 0.00 0.00 0.00 88 1013.9
20260903153842 83 198 0.0 3.0 0.00 0.00 0.00 88 1013.8
20260903153114 83 197 0.0 2.0 0.00 0.00 0.00 88 1014.0
20260903152610 83 0 0.0 2.0 0.00 0.00 0.00 88 1014.0
20260903152110 83 0 0.0 2.0 0.00 0.00 0.00 88 1014.0
20260903151612 83 0 0.0 2.0 0.00 0.00 0.00 88 1014.0
20260903151112 83 0 0.0 2.0 0.00 0.00 0.00 88 1014.0
20260903150609 83 0 0.0 2.0 0.00 0.00 0.00 88 1014.1
20260903150108 83 0 0.0 2.0 0.00 0.00 0.00 88 1014.1
20260903145606 83 0 0.0 2.0 0.00 0.00 0.00 87 1014.1
20260903145103 83 0 0.0 1.0 0.00 0.00 0.00 87 1014.1
20260903144602 83 0 0.0 1.0 0.00 0.00 0.00 87 1014.3
20260903144103 83 0 0.0 1.0 0.00 0.00 0.00 87 1014.4
20260903143557 83 0 0.0 1.0 0.00 0.00 0.00 87 1014.3
20260903143326 83 0 0.0 1.0 0.00 0.00 0.00 87 1014.3
20260903142556 83 0 0.0 1.0 0.00 0.00 0.00 87 1014.3
20260903142056 83 0 0.0 0.0 0.00 0.00 0.00 87 1014.3
20260903141550 83 0 0.0 0.0 0.00 0.00 0.00 87 1014.3
20260903141049 83 0 0.0 0.0 0.00 0.00 0.00 87 1014.2
20260903140549 83 0 0.0 1.0 0.00 0.00 0.00 86 1014.2
20260903140320 83 0 0.0 1.0 0.00 0.00 0.00 86 1014.2
20260903135548 83 0 0.0 1.0 0.00 0.00 0.00 86 1014.2
20260903135050 83 0 0.0 1.0 0.00 0.00 0.00 86 1014.3
20260903134546 83 0 0.0 1.0 0.00 0.00 0.00 86 1014.2
20260903134047 83 0 0.0 1.0 0.00 0.00 0.00 86 1014.3
20260903133545 83 0 0.0 1.0 0.00 0.00 0.00 86 1014.3
20260903133042 83 0 0.0 1.0 0.00 0.00 0.00 86 1014.2
20260903132543 83 0 0.0 1.0 0.00 0.00 0.00 86 1014.2
20260903132043 83 0 0.0 1.0 0.00 0.00 0.00 86 1014.1
20260903131540 83 0 0.0 1.0 0.00 0.00 0.00 85 1014.1
20260903131038 83 0 0.0 2.0 0.00 0.00 0.00 85 1014.0
20260903130809 83 0 0.0 2.0 0.00 0.00 0.00 85 1014.0
20260903130036 83 0 0.0 2.0 0.00 0.00 0.00 85 1014.0
20260903125530 83 0 0.0 2.0 0.00 0.00 0.00 85 1014.0
20260903125030 83 0 0.0 1.0 0.00 0.00 0.00 85 1013.8
20260903124801 83 0 0.0 2.0 0.00 0.00 0.00 85 1013.6
20260903124031 83 0 0.0 2.0 0.00 0.00 0.00 85 1013.5
20260903123529 83 0 0.0 4.0 0.00 0.00 0.00 85 1013.5
20260903123026 83 0 0.0 4.0 0.00 0.00 0.00 85 1013.4
20260903122525 83 0 1.0 5.0 0.00 0.00 0.00 85 1013.3
20260903122027 83 0 1.0 5.0 0.00 0.00 0.00 85 1013.3
20260903121754 83 0 1.0 3.0 0.00 0.00 0.00 85 1013.2
20260903121026 83 0 1.0 3.0 0.00 0.00 0.00 84 1013.2
20260903120521 83 0 0.0 3.0 0.00 0.00 0.00 84 1013.2
20260903120022 83 0 0.0 3.0 0.00 0.00 0.00 84 1013.2
20260903115523 84 0 0.0 2.0 0.00 0.00 0.00 84 1013.2
20260903115023 84 0 0.0 2.0 0.00 0.00 0.00 84 1013.2
20260903114520 84 0 0.0 2.0 0.00 0.00 0.00 84 1013.1
20260903114020 84 0 0.0 3.0 0.00 0.00 0.00 83 1013.1
20260903113521 84 0 1.0 3.0 0.00 0.00 0.00 83 1013.1
20260903113020 84 0 0.0 3.0 0.00 0.00 0.00 83 1013.2
20260903112518 84 0 0.0 3.0 0.00 0.00 0.00 83 1013.2
20260903112020 84 0 0.0 3.0 0.00 0.00 0.00 83 1013.2
20260903111517 84 0 0.0 3.0 0.00 0.00 0.00 83 1013.2
20260903111020 84 0 0.0 1.0 0.00 0.00 0.00 83 1013.2
20260903110517 84 0 0.0 1.0 0.00 0.00 0.00 83 1013.3
20260903110018 85 0 0.0 1.0 0.00 0.00 0.00 83 1013.3
20260903105517 85 0 0.0 4.0 0.00 0.00 0.00 83 1013.2
20260903105015 85 0 0.0 4.0 0.00 0.00 0.00 83 1013.1
20260903104516 85 0 1.0 4.0 0.00 0.00 0.00 83 1013.1
20260903104016 85 0 2.0 4.0 0.00 0.00 0.00 83 1013.0
20260903103748 85 0 1.0 4.0 0.00 0.00 0.00 83 1013.0
20260903103015 85 0 1.0 5.0 0.00 0.00 0.00 83 1012.9
20260903102517 85 0 1.0 5.0 0.00 0.00 0.00 82 1012.9
20260903102246 85 0 1.0 5.0 0.00 0.00 0.00 82 1012.9
20260903101513 85 0 1.0 5.0 0.00 0.00 0.00 82 1012.9
20260903101015 85 0 1.0 5.0 0.00 0.00 0.00 82 1012.9
20260903100514 85 0 1.0 4.0 0.00 0.00 0.00 82 1012.9
20260903100013 85 0 0.0 4.0 0.00 0.00 0.00 82 1012.9
20260903095514 85 0 0.0 2.0 0.00 0.00 0.00 82 1012.8
20260903095014 85 0 1.0 4.0 0.00 0.00 0.00 82 1012.8
20260903094738 85 0 1.0 4.0 0.00 0.00 0.00 82 1012.8
20260903094005 85 0 1.0 4.0 0.00 0.00 0.00 82 1012.9
20260903093505 85 0 1.0 5.0 0.00 0.00 0.00 82 1012.9
20260903093005 85 0 1.0 5.0 0.00 0.00 0.00 82 1012.9
20260903092502 85 0 1.0 5.0 0.00 0.00 0.00 82 1012.9
20260903092002 85 0 2.0 5.0 0.00 0.00 0.00 82 1012.9
20260903091502 85 0 1.0 4.0 0.00 0.00 0.00 82 1012.9
20260903091008 85 0 1.0 4.0 0.00 0.00 0.00 82 1012.9
20260903090502 85 0 1.0 4.0 0.00 0.00 0.00 82 1012.9
20260903090003 85 0 1.0 3.0 0.00 0.00 0.00 82 1012.9
20260903085502 85 0 1.0 4.0 0.00 0.00 0.00 82 1012.9
20260903084959 85 0 1.0 4.0 0.00 0.00 0.00 82 1012.8
20260903084501 85 0 1.0 4.0 0.00 0.00 0.00 82 1012.8
20260903083957 85 0 2.0 4.0 0.00 0.00 0.00 82 1012.8
20260903083457 85 0 1.0 4.0 0.00 0.00 0.00 82 1012.8
20260903082957 85 0 1.0 8.0 0.00 0.00 0.00 82 1012.7
20260903082728 85 0 1.0 8.0 0.00 0.00 0.00 82 1012.7
20260903081956 85 0 1.0 5.0 0.00 0.00 0.00 82 1012.7
20260903081728 85 0 1.0 4.0 0.00 0.00 0.00 82 1012.7
20260903080959 85 0 1.0 4.0 0.00 0.00 0.00 82 1012.7
20260903080456 85 0 1.0 5.0 0.00 0.00 0.00 82 1012.7
20260903075955 85 0 1.0 5.0 0.00 0.00 0.00 82 1012.8
20260903075453 85 0 2.0 5.0 0.00 0.00 0.00 82 1012.7
20260903074955 85 0 1.0 5.0 0.00 0.00 0.00 82 1012.7
20260903074452 85 0 1.0 4.0 0.00 0.00 0.00 82 1012.7
20260903073954 85 0 2.0 6.0 0.00 0.00 0.00 82 1012.7
20260903073453 85 0 2.0 6.0 0.00 0.00 0.00 82 1012.7
20260903072951 85 0 2.0 6.0 0.00 0.00 0.00 82 1012.7
20260903072453 85 0 2.0 6.0 0.00 0.00 0.00 82 1012.8
20260903071953 85 0 2.0 6.0 0.00 0.00 0.00 82 1012.8
20260903071453 85 0 1.0 5.0 0.00 0.00 0.00 82 1012.9
20260903070951 85 0 1.0 3.0 0.00 0.00 0.00 82 1012.9
20260903070453 85 0 1.0 3.0 0.00 0.00 0.00 82 1012.9
20260903065950 85 0 1.0 5.0 0.00 0.00 0.00 82 1013.1
20260903065450 85 0 1.0 5.0 0.00 0.00 0.00 82 1013.1
20260903064948 85 0 2.0 5.0 0.00 0.00 0.00 82 1013.2
20260903064448 85 0 1.0 5.0 0.00 0.00 0.00 82 1013.3
20260903064220 85 0 1.0 4.0 0.00 0.00 0.00 82 1013.3
20260903063447 85 0 1.0 4.0 0.00 0.00 0.00 82 1013.4
20260903062947 85 0 1.0 4.0 0.00 0.00 0.00 82 1013.4
20260903062447 85 0 1.0 5.0 0.00 0.00 0.00 82 1013.5
20260903061946 85 0 1.0 5.0 0.00 0.00 0.00 82 1013.6
20260903061446 85 0 1.0 4.0 0.00 0.00 0.00 82 1013.5
20260903060947 85 0 1.0 4.0 0.00 0.00 0.00 81 1013.5
20260903060446 85 0 1.0 3.0 0.00 0.00 0.00 81 1013.6
20260903055945 85 0 1.0 2.0 0.00 0.00 0.00 81 1013.7
20260903055718 85 0 1.0 3.0 0.00 0.00 0.00 81 1013.8
20260903054951 86 0 0.0 3.0 0.00 0.00 0.00 81 1013.9
20260903054945 86 0 0.0 3.0 0.00 0.00 0.00 81 1013.8
20260903053947 86 0 0.0 3.0 0.00 0.00 0.00 81 1013.9
20260903053439 86 0 1.0 4.0 0.00 0.00 0.00 81 1014.0
20260903052931 86 0 1.0 4.0 0.00 0.00 0.00 81 1014.0
20260903052700 86 0 1.0 3.0 0.00 0.00 0.00 81 1014.0
20260903051929 86 0 1.0 4.0 0.00 0.00 0.00 81 1014.0
20260903051426 86 0 1.0 4.0 0.00 0.00 0.00 81 1014.1
20260903050926 86 0 1.0 8.0 0.00 0.00 0.00 81 1014.1
20260903050422 86 0 2.0 8.0 0.00 0.00 0.00 81 1014.1
20260903045923 86 0 2.0 8.0 0.00 0.00 0.00 81 1014.1
20260903045419 86 0 2.0 8.0 0.00 0.00 0.00 81 1014.1
20260903045150 86 0 2.0 8.0 0.00 0.00 0.00 81 1014.0
20260903044650 86 0 1.0 5.0 0.00 0.00 0.00 81 1014.0
20260903043916 86 0 2.0 5.0 0.00 0.00 0.00 81 1014.0
20260903043647 86 0 2.0 6.0 0.00 0.00 0.00 81 1014.1
20260903042916 86 0 1.0 6.0 0.00 0.00 0.00 81 1014.0
20260903042415 87 0 2.0 6.0 0.00 0.00 0.00 81 1014.0
20260903041915 87 0 3.0 6.0 0.00 0.00 0.00 81 1013.9
20260903041416 87 0 2.0 6.0 0.00 0.00 0.00 81 1014.0
20260903040911 87 0 2.0 9.0 0.00 0.00 0.00 80 1014.0
20260903040407 87 0 2.0 9.0 0.00 0.00 0.00 80 1014.1
20260903040135 87 0 2.0 6.0 0.00 0.00 0.00 80 1014.0
20260903035405 87 0 2.0 9.0 0.00 0.00 0.00 80 1014.0
20260903034906 87 0 2.0 9.0 0.00 0.00 0.00 80 1013.9
20260903034405 87 0 2.0 9.0 0.00 0.00 0.00 80 1013.8
20260903033900 87 0 2.0 10.0 0.00 0.00 0.00 80 1013.8
20260903033353 87 0 3.0 10.0 0.00 0.00 0.00 80 1013.7
20260903032852 87 0 3.0 11.0 0.00 0.00 0.00 80 1013.7
20260903032353 87 0 4.0 11.0 0.00 0.00 0.00 80 1013.7
20260903031846 87 0 3.0 12.0 0.00 0.00 0.00 80 1013.7
20260903031345 87 0 3.0 12.0 0.00 0.00 0.00 80 1013.7
20260903031119 87 0 3.0 12.0 0.00 0.00 0.00 80 1013.5
20260903030345 87 0 4.0 13.0 0.00 0.00 0.00 80 1013.4
20260903025846 88 0 4.0 13.0 0.00 0.00 0.00 79 1013.3
20260903025347 88 0 3.0 13.0 0.00 0.00 0.00 79 1013.3
20260903024846 88 0 3.0 9.0 0.00 0.00 0.00 79 1013.2
20260903024615 88 0 3.0 9.0 0.00 0.00 0.00 79 1013.2
20260903024117 88 0 2.0 9.0 0.00 0.00 0.00 79 1013.3
20260903023345 88 0 1.0 6.0 0.00 0.00 0.00 78 1013.3
20260903022846 88 0 2.0 6.0 0.00 0.00 0.00 78 1013.1
20260903022346 88 0 2.0 6.0 0.00 0.00 0.00 77 1013.0
20260903021846 89 0 2.0 6.0 0.00 0.00 0.00 77 1012.8
20260903021342 89 0 1.0 8.0 0.00 0.00 0.00 76 1012.7
20260903021113 89 0 1.0 8.0 0.00 0.00 0.00 75 1012.7
20260903020342 89 0 2.0 8.0 0.00 0.00 0.00 74 1012.6
20260903015837 89 0 2.0 10.0 0.00 0.00 0.00 74 1012.5
20260903015339 89 0 2.0 10.0 0.00 0.00 0.00 73 1012.5
20260903014840 89 0 3.0 10.0 0.00 0.00 0.00 72 1012.4
20260903014337 89 0 3.0 10.0 0.00 0.00 0.00 72 1012.4
20260903013837 89 0 3.0 10.0 0.00 0.00 0.00 71 1012.5
20260903013610 89 0 3.0 11.0 0.00 0.00 0.00 70 1012.5
20260903012838 90 0 4.0 11.0 0.00 0.00 0.00 70 1012.3
20260903012339 90 0 3.0 11.0 0.00 0.00 0.00 68 1012.3
20260903011838 90 0 3.0 11.0 0.00 0.00 0.00 67 1012.3
20260903011337 90 0 2.0 8.0 0.00 0.00 0.00 66 1012.0
20260903011108 90 0 2.0 8.0 0.00 0.00 0.00 65 1012.0
20260903010332 90 0 2.0 9.0 0.00 0.00 0.00 64 1012.0
20260903005830 90 0 3.0 9.0 0.00 0.00 0.00 63 1011.8
20260903005332 90 0 4.0 8.0 0.00 0.00 0.00 63 1011.7
20260903004831 90 0 3.0 12.0 0.00 0.00 0.00 62 1011.7
20260903004605 91 0 3.0 12.0 0.00 0.00 0.00 63 1011.7
20260903003832 91 0 3.0 12.0 0.00 0.00 0.00 63 1011.7
20260903003332 91 0 4.0 12.0 0.00 0.00 0.00 63 1011.7
20260903002827 91 0 4.0 11.0 0.00 0.00 0.00 63 1011.7
20260903002328 91 0 4.0 11.0 0.00 0.00 0.00 63 1011.5
20260903001828 92 165 3.0 10.0 0.00 0.00 0.00 63 1011.5
20260903001328 92 161 3.0 9.0 0.00 0.00 0.00 63 1011.4
20260903000829 92 155 3.0 8.0 0.00 0.00 0.00 63 1011.2
20260903000329 92 136 2.0 8.0 0.00 0.00 0.00 62 1011.2
20260902235825 92 131 2.0 11.0 0.00 0.00 0.00 61 1011.2
20260902235326 92 51 3.0 11.0 0.00 0.00 0.00 61 1011.1
20260902235055 92 184 3.0 11.0 0.00 0.00 0.00 61 1011.1
20260902234555 93 113 3.0 11.0 0.00 0.00 0.00 62 1011.0
20260902233823 93 116 3.0 9.0 0.00 0.00 0.00 62 1010.9